TimeEST,TemperatureF,Dew PointF,Humidity,Sea Level PressureIn,VisibilityMPH,Wind Direction,Wind SpeedMPH,Gust SpeedMPH,PrecipitationIn,Events,Conditions,WindDirDegrees,DateUTC
12:53 AM,43.0,39.0,86,30.00,10.0,Calm,Calm,-,N/A,,Overcast,0,2013-12-02 05:53:00
1:53 AM,43.0,39.9,89,29.99,10.0,Calm,Calm,-,N/A,,Overcast,0,2013-12-02 06:53:00
2:53 AM,44.1,39.9,85,29.98,10.0,Calm,Calm,-,0.00,,Overcast,0,2013-12-02 07:53:00
3:53 AM,44.1,41.0,89,29.97,9.0,Calm,Calm,-,0.00,,Overcast,0,2013-12-02 08:53:00
4:53 AM,44.1,41.0,89,29.96,7.0,Calm,Calm,-,0.01,Rain,Light Rain,0,2013-12-02 09:53:00
5:02 AM,44.6,42.8,93,29.97,6.0,Calm,Calm,-,0.00,Rain,Light Rain,0,2013-12-02 10:02:00
5:53 AM,44.1,42.1,93,29.96,4.0,Calm,Calm,-,0.03,Rain,Light Rain,0,2013-12-02 10:53:00
6:16 AM,44.6,42.8,93,29.97,2.5,Calm,Calm,-,0.03,Rain,Rain,0,2013-12-02 11:16:00
6:30 AM,44.6,42.8,93,29.97,3.0,Calm,Calm,-,0.05,Rain,Light Rain,0,2013-12-02 11:30:00
6:37 AM,44.6,42.8,93,29.97,2.5,Calm,Calm,-,0.06,Rain,Rain,0,2013-12-02 11:37:00
6:46 AM,44.6,42.8,93,29.97,3.0,Calm,Calm,-,0.08,Rain,Rain,0,2013-12-02 11:46:00
6:53 AM,44.1,43.0,96,29.97,2.5,Calm,Calm,-,0.10,Rain,Rain,0,2013-12-02 11:53:00
7:24 AM,44.6,42.8,93,29.96,3.0,Calm,Calm,-,0.04,Rain,Light Rain,0,2013-12-02 12:24:00
7:53 AM,44.1,43.0,96,29.95,4.0,Calm,Calm,-,0.05,,Overcast,0,2013-12-02 12:53:00
8:40 AM,44.6,44.6,100,29.95,2.0,Calm,Calm,-,0.00,Rain,Light Rain,0,2013-12-02 13:40:00
8:53 AM,45.0,44.1,97,29.95,3.0,Calm,Calm,-,0.00,Rain,Light Rain,0,2013-12-02 13:53:00
9:07 AM,46.4,44.6,93,29.95,3.0,Calm,Calm,-,0.00,Rain,Light Rain,0,2013-12-02 14:07:00
9:29 AM,46.4,44.6,93,29.95,2.0,Calm,Calm,-,0.01,Rain,Light Rain,0,2013-12-02 14:29:00
9:36 AM,46.4,44.6,93,29.95,1.8,Calm,Calm,-,0.01,Rain,Light Rain,0,2013-12-02 14:36:00
9:53 AM,46.9,45.0,93,29.94,4.0,Calm,Calm,-,0.01,,Overcast,0,2013-12-02 14:53:00
10:18 AM,46.4,44.6,93,29.95,4.0,Calm,Calm,-,0.01,,Overcast,0,2013-12-02 15:18:00
10:26 AM,46.4,44.6,93,29.95,3.0,Calm,Calm,-,0.01,Rain,Light Rain,0,2013-12-02 15:26:00
10:53 AM,48.0,46.0,93,29.93,4.0,Calm,Calm,-,0.02,,Overcast,0,2013-12-02 15:53:00
11:27 AM,48.2,46.4,93,29.93,5.0,Calm,Calm,-,0.00,Rain,Light Rain,0,2013-12-02 16:27:00
11:48 AM,48.2,46.4,93,29.92,6.0,Calm,Calm,-,0.00,,Overcast,0,2013-12-02 16:48:00
11:53 AM,48.0,46.0,93,29.91,6.0,Calm,Calm,-,0.00,,Overcast,0,2013-12-02 16:53:00
12:31 PM,48.2,46.4,93,29.91,2.5,Calm,Calm,-,0.02,Rain,Light Rain,0,2013-12-02 17:31:00
12:40 PM,48.2,46.4,93,29.90,3.0,Calm,Calm,-,0.03,Rain,Light Rain,0,2013-12-02 17:40:00
12:53 PM,48.9,46.9,93,29.89,3.0,Calm,Calm,-,0.04,Rain,Light Rain,0,2013-12-02 17:53:00
1:53 PM,51.1,48.0,89,29.85,7.0,Calm,Calm,-,0.00,,Overcast,0,2013-12-02 18:53:00
2:53 PM,51.1,48.9,92,29.83,5.0,Calm,Calm,-,N/A,,Overcast,0,2013-12-02 19:53:00
3:53 PM,51.1,50.0,96,29.83,3.0,Calm,Calm,-,N/A,,Overcast,0,2013-12-02 20:53:00
4:50 PM,51.8,50.0,94,29.83,3.0,Calm,Calm,-,N/A,,Overcast,0,2013-12-02 21:50:00
4:53 PM,52.0,50.0,93,29.82,3.0,Calm,Calm,-,N/A,,Overcast,0,2013-12-02 21:53:00
5:06 PM,51.8,50.0,94,29.84,2.5,Calm,Calm,-,N/A,,Overcast,0,2013-12-02 22:06:00
5:28 PM,51.8,50.0,94,29.84,3.0,Calm,Calm,-,N/A,,Overcast,0,2013-12-02 22:28:00
5:36 PM,51.8,50.0,94,29.84,4.0,Calm,Calm,-,N/A,,Overcast,0,2013-12-02 22:36:00
5:53 PM,51.1,50.0,96,29.83,4.0,Calm,Calm,-,N/A,,Overcast,0,2013-12-02 22:53:00
6:53 PM,51.1,50.0,96,29.84,3.0,Calm,Calm,-,0.02,,Overcast,0,2013-12-02 23:53:00
7:21 PM,51.8,50.0,94,29.84,3.0,Calm,Calm,-,0.01,Rain,Light Rain,0,2013-12-03 00:21:00
7:53 PM,51.1,50.0,96,29.83,4.0,SE,3.5,-,0.01,,Overcast,140,2013-12-03 00:53:00
8:07 PM,51.8,50.0,94,29.85,4.0,SE,4.6,-,N/A,,Overcast,130,2013-12-03 01:07:00
8:53 PM,51.1,50.0,96,29.85,3.0,Calm,Calm,-,N/A,,Overcast,0,2013-12-03 01:53:00
9:00 PM,51.8,50.0,94,29.86,3.0,Calm,Calm,-,N/A,,Overcast,0,2013-12-03 02:00:00
9:22 PM,51.8,50.0,94,29.85,4.0,Calm,Calm,-,N/A,,Overcast,0,2013-12-03 02:22:00
9:53 PM,52.0,50.0,93,29.85,5.0,Calm,Calm,-,N/A,,Overcast,0,2013-12-03 02:53:00
10:01 PM,51.8,50.0,94,29.86,1.8,Calm,Calm,-,0.04,Rain,Heavy Rain,0,2013-12-03 03:01:00
10:15 PM,51.8,50.0,94,29.86,2.0,Calm,Calm,-,0.06,Rain,Light Rain,0,2013-12-03 03:15:00
10:26 PM,51.8,50.0,94,29.86,3.0,Calm,Calm,-,0.07,Rain,Light Rain,0,2013-12-03 03:26:00
10:42 PM,51.8,50.0,94,29.86,3.0,SE,3.5,-,0.09,Rain,Light Rain,130,2013-12-03 03:42:00
10:50 PM,51.8,50.0,94,29.86,2.5,Calm,Calm,-,0.11,Rain,Light Rain,0,2013-12-03 03:50:00
10:53 PM,51.1,50.0,96,29.85,3.0,ENE,3.5,-,0.11,Rain,Light Rain,60,2013-12-03 03:53:00
11:11 PM,51.8,50.0,94,29.87,3.0,Calm,Calm,-,0.00,,Overcast,0,2013-12-03 04:11:00
11:36 PM,51.8,50.0,94,29.87,2.5,Calm,Calm,-,0.02,Rain,Light Rain,0,2013-12-03 04:36:00
11:53 PM,51.1,50.0,96,29.86,1.8,NNE,5.8,-,0.08,Rain,Rain,20,2013-12-03 04:53:00
11:58 PM,51.8,50.0,94,29.87,2.0,NNE,5.8,-,0.00,Rain,Light Rain,20,2013-12-03 04:58:00